Time,TemperatureF,DewpointF,PressureIn,WindDirection,WindDirectionDegrees,WindSpeedMPH,WindSpeedGustMPH,Humidity,HourlyPrecipIn,Conditions,Clouds,dailyrainin,SoftwareType,DateUTC
2013-09-05 00:12:00,65.0,63.0,30.11,NE,56,0.0,0.0,93,0.00,,,0.00,,2013-09-05 05:12:00,
2013-09-05 00:23:00,64.0,62.0,30.11,NE,56,0.0,0.0,93,0.00,,,0.00,,2013-09-05 05:23:00,
2013-09-05 00:43:00,64.0,62.0,30.11,NE,56,0.0,0.0,93,0.00,,,0.00,,2013-09-05 05:43:00,
2013-09-05 00:52:00,64.0,62.0,30.11,NE,56,0.0,0.0,94,0.00,,,0.00,,2013-09-05 05:52:00,
2013-09-05 01:12:00,63.0,61.0,30.11,NE,56,0.0,0.0,94,0.00,,,0.00,,2013-09-05 06:12:00,
2013-09-05 01:22:00,63.0,61.0,30.11,NE,56,0.0,0.0,94,0.00,,,0.00,,2013-09-05 06:22:00,
2013-09-05 01:52:00,62.0,60.0,30.12,NE,56,0.0,0.0,94,0.00,,,0.00,,2013-09-05 06:52:00,
2013-09-05 02:12:00,62.0,60.0,30.11,NE,56,0.0,0.0,94,0.00,,,0.00,,2013-09-05 07:12:00,
2013-09-05 02:23:00,61.0,60.0,30.11,NE,56,0.0,0.0,95,0.00,,,0.00,,2013-09-05 07:23:00,
2013-09-05 02:42:00,61.0,60.0,30.12,NE,56,0.0,0.0,95,0.00,,,0.00,,2013-09-05 07:42:00,
2013-09-05 02:52:00,61.0,60.0,30.12,NE,56,0.0,0.0,95,0.00,,,0.00,,2013-09-05 07:52:00,
2013-09-05 03:12:00,61.0,60.0,30.12,NE,56,0.0,0.0,95,0.00,,,0.00,,2013-09-05 08:12:00,
2013-09-05 03:22:00,61.0,60.0,30.11,NE,56,0.0,0.0,95,0.00,,,0.00,,2013-09-05 08:22:00,
2013-09-05 03:42:00,60.0,59.0,30.12,NE,56,0.0,0.0,95,0.00,,,0.00,,2013-09-05 08:42:00,
2013-09-05 03:52:00,60.0,59.0,30.12,NE,56,0.0,0.0,96,0.00,,,0.00,,2013-09-05 08:52:00,
2013-09-05 04:11:00,60.0,59.0,30.12,NE,56,0.0,0.0,95,0.00,,,0.00,,2013-09-05 09:11:00,
2013-09-05 04:22:00,60.0,59.0,30.12,NE,56,0.0,0.0,96,0.00,,,0.00,,2013-09-05 09:22:00,
2013-09-05 04:43:00,59.0,58.0,30.12,NE,56,0.0,0.0,95,0.00,,,0.00,,2013-09-05 09:43:00,
2013-09-05 04:53:00,59.0,57.0,30.12,NE,56,0.0,0.0,94,0.00,,,0.00,,2013-09-05 09:53:00,
2013-09-05 05:12:00,58.0,57.0,30.12,NE,56,0.0,0.0,95,0.00,,,0.00,,2013-09-05 10:12:00,
2013-09-05 05:23:00,58.0,57.0,30.13,NE,56,0.0,0.0,95,0.00,,,0.00,,2013-09-05 10:23:00,
2013-09-05 05:43:00,58.0,57.0,30.13,NE,56,0.0,0.0,96,0.00,,,0.00,,2013-09-05 10:43:00,
2013-09-05 05:53:00,58.0,57.0,30.14,NE,56,0.0,0.0,95,0.00,,,0.00,,2013-09-05 10:53:00,
2013-09-05 06:12:00,57.0,56.0,30.14,NE,56,0.0,0.0,95,0.00,,,0.00,,2013-09-05 11:12:00,
2013-09-05 06:22:00,57.0,56.0,30.14,NE,56,0.0,0.0,96,0.00,,,0.00,,2013-09-05 11:22:00,
2013-09-05 06:42:00,57.0,56.0,30.14,NE,56,0.0,0.0,96,0.00,,,0.00,,2013-09-05 11:42:00,
2013-09-05 06:52:00,57.0,56.0,30.15,NE,56,0.0,0.0,96,0.00,,,0.00,,2013-09-05 11:52:00,
2013-09-05 07:13:00,57.0,56.0,30.14,NE,56,0.0,0.0,96,0.00,,,0.00,,2013-09-05 12:13:00,
2013-09-05 07:21:00,56.0,55.0,30.15,NE,56,0.0,0.0,96,0.00,,,0.00,,2013-09-05 12:21:00,
2013-09-05 07:42:00,56.0,55.0,30.15,NE,56,0.0,0.0,96,0.00,,,0.00,,2013-09-05 12:42:00,
2013-09-05 07:52:00,56.0,55.0,30.16,NE,56,0.0,0.0,96,0.00,,,0.00,,2013-09-05 12:52:00,
2013-09-05 08:12:00,56.0,55.0,30.16,NE,56,0.0,0.0,97,0.00,,,0.00,,2013-09-05 13:12:00,
2013-09-05 08:21:00,57.0,56.0,30.16,NE,56,0.0,0.0,97,0.00,,,0.00,,2013-09-05 13:21:00,
2013-09-05 08:53:00,58.0,57.0,30.17,NE,56,0.0,0.0,98,0.00,,,0.00,,2013-09-05 13:53:00,
2013-09-05 09:12:00,59.0,58.0,30.17,NE,56,0.0,0.0,98,0.00,,,0.00,,2013-09-05 14:12:00,
2013-09-05 09:22:00,60.0,59.0,30.17,NE,56,0.0,0.0,98,0.00,,,0.00,,2013-09-05 14:22:00,
2013-09-05 09:42:00,62.0,61.0,30.17,NE,56,0.0,0.0,98,0.00,,,0.00,,2013-09-05 14:42:00,
2013-09-05 09:52:00,63.0,62.0,30.17,NE,56,0.0,0.0,96,0.00,,,0.00,,2013-09-05 14:52:00,
2013-09-05 10:11:00,65.0,63.0,30.17,NE,56,0.0,0.0,92,0.00,,,0.00,,2013-09-05 15:11:00,
2013-09-05 10:22:00,67.0,64.0,30.18,NE,56,0.0,0.0,89,0.00,,,0.00,,2013-09-05 15:22:00,
2013-09-05 10:44:00,68.0,64.0,30.19,NE,56,0.0,0.0,88,0.00,,,0.00,,2013-09-05 15:44:00,
2013-09-05 10:54:00,70.0,65.0,30.19,NE,56,0.0,0.0,85,0.00,,,0.00,,2013-09-05 15:54:00,
2013-09-05 11:13:00,71.0,64.0,30.19,NE,56,0.0,0.0,79,0.00,,,0.00,,2013-09-05 16:13:00,
2013-09-05 11:24:00,73.0,66.0,30.19,NE,56,0.0,0.0,78,0.00,,,0.00,,2013-09-05 16:24:00,
2013-09-05 11:43:00,75.0,67.0,30.19,NE,56,0.0,0.0,75,0.00,,,0.00,,2013-09-05 16:43:00,
2013-09-05 11:54:00,76.0,67.0,30.18,NE,56,0.0,0.0,74,0.00,,,0.00,,2013-09-05 16:54:00,
2013-09-05 12:12:00,78.0,67.0,30.18,NE,56,0.0,0.0,70,0.00,,,0.00,,2013-09-05 17:12:00,
2013-09-05 12:23:00,79.0,67.0,30.17,ENE,64,0.0,0.0,67,0.00,,,0.00,,2013-09-05 17:23:00,
2013-09-05 12:43:00,81.0,67.0,30.16,ENE,68,0.0,0.0,62,0.00,,,0.00,,2013-09-05 17:43:00,
2013-09-05 12:52:00,82.0,67.0,30.16,NNW,328,0.0,0.0,60,0.00,,,0.00,,2013-09-05 17:52:00,
2013-09-05 13:12:00,83.0,67.0,30.16,NNE,25,0.0,0.0,59,0.00,,,0.00,,2013-09-05 18:12:00,
2013-09-05 13:22:00,83.0,68.0,30.15,ENE,71,0.0,0.0,60,0.00,,,0.00,,2013-09-05 18:22:00,
2013-09-05 13:52:00,84.0,67.0,30.14,SSE,165,0.0,3.0,56,0.00,,,0.00,,2013-09-05 18:52:00,
2013-09-05 14:11:00,85.0,66.0,30.14,South,172,0.0,2.0,53,0.00,,,0.00,,2013-09-05 19:11:00,
2013-09-05 14:22:00,86.0,68.0,30.14,SE,135,0.0,2.0,56,0.00,,,0.00,,2013-09-05 19:22:00,
2013-09-05 14:42:00,86.0,67.0,30.13,SSE,159,0.0,0.0,53,0.00,,,0.00,,2013-09-05 19:42:00,
2013-09-05 14:52:00,86.0,68.0,30.12,SSE,157,0.0,3.0,56,0.00,,,0.00,,2013-09-05 19:52:00,
2013-09-05 15:11:00,88.0,66.0,30.11,East,90,0.0,4.0,48,0.00,,,0.00,,2013-09-05 20:11:00,
2013-09-05 15:22:00,89.0,68.0,30.11,SE,140,0.0,0.0,50,0.00,,,0.00,,2013-09-05 20:22:00,
2013-09-05 15:52:00,91.0,65.0,30.10,NNW,330,0.0,0.0,42,0.00,,,0.00,,2013-09-05 20:52:00,
2013-09-05 16:21:00,91.0,63.0,30.10,NNE,25,0.0,4.0,40,0.00,,,0.00,,2013-09-05 21:21:00,
2013-09-05 16:54:00,90.0,65.0,30.10,NE,34,0.0,4.0,44,0.00,,,0.00,,2013-09-05 21:54:00,
2013-09-05 17:13:00,91.0,64.0,30.10,NE,34,0.0,0.0,41,0.00,,,0.00,,2013-09-05 22:13:00,
2013-09-05 17:24:00,91.0,65.0,30.09,NE,35,0.0,0.0,43,0.00,,,0.00,,2013-09-05 22:24:00,
2013-09-05 17:53:00,90.0,68.0,30.09,North,5,0.0,0.0,48,0.00,,,0.00,,2013-09-05 22:53:00,
2013-09-05 18:12:00,90.0,66.0,30.09,North,5,0.0,0.0,46,0.00,,,0.00,,2013-09-05 23:12:00,
2013-09-05 18:22:00,88.0,65.0,30.09,North,5,0.0,0.0,47,0.00,,,0.00,,2013-09-05 23:22:00,
2013-09-05 18:53:00,87.0,67.0,30.08,North,5,0.0,0.0,51,0.00,,,0.00,,2013-09-05 23:53:00,
2013-09-05 19:12:00,86.0,65.0,30.08,North,5,0.0,0.0,49,0.00,,,0.00,,2013-09-06 00:12:00,
2013-09-05 19:22:00,86.0,68.0,30.08,North,5,0.0,0.0,55,0.00,,,0.00,,2013-09-06 00:22:00,
2013-09-05 19:42:00,85.0,68.0,30.08,North,5,0.0,0.0,56,0.00,,,0.00,,2013-09-06 00:42:00,
2013-09-05 19:52:00,83.0,68.0,30.08,North,5,0.0,0.0,61,0.00,,,0.00,,2013-09-06 00:52:00,
2013-09-05 20:11:00,80.0,68.0,30.08,North,5,0.0,0.0,66,0.00,,,0.00,,2013-09-06 01:11:00,
2013-09-05 20:22:00,78.0,67.0,30.08,North,5,0.0,0.0,70,0.00,,,0.00,,2013-09-06 01:22:00,
2013-09-05 20:42:00,77.0,68.0,30.09,North,5,0.0,0.0,74,0.00,,,0.00,,2013-09-06 01:42:00,
2013-09-05 20:52:00,75.0,67.0,30.09,North,5,0.0,0.0,77,0.00,,,0.00,,2013-09-06 01:52:00,
2013-09-05 21:11:00,74.0,68.0,30.09,North,5,0.0,0.0,81,0.00,,,0.00,,2013-09-06 02:11:00,
2013-09-05 21:22:00,73.0,68.0,30.10,North,5,0.0,0.0,83,0.00,,,0.00,,2013-09-06 02:22:00,
2013-09-05 21:42:00,72.0,67.0,30.10,North,5,0.0,0.0,84,0.00,,,0.00,,2013-09-06 02:42:00,
2013-09-05 21:52:00,71.0,67.0,30.11,North,5,0.0,0.0,86,0.00,,,0.00,,2013-09-06 02:52:00,
2013-09-05 22:11:00,70.0,66.0,30.11,North,5,0.0,1.0,87,0.00,,,0.00,,2013-09-06 03:11:00,
2013-09-05 22:22:00,70.0,66.0,30.12,North,5,0.0,0.0,88,0.00,,,0.00,,2013-09-06 03:22:00,
2013-09-05 22:55:00,68.0,65.0,30.12,North,5,0.0,0.0,89,0.00,,,0.00,,2013-09-06 03:55:00,
2013-09-05 23:14:00,67.0,64.0,30.13,North,5,0.0,0.0,91,0.00,,,0.00,,2013-09-06 04:14:00,
2013-09-05 23:23:00,67.0,65.0,30.13,North,5,0.0,0.0,92,0.00,,,0.00,,2013-09-06 04:23:00,
2013-09-05 23:54:00,66.0,64.0,30.13,North,5,0.0,0.0,93,0.00,,,0.00,,2013-09-06 04:54:00,